Вернуться в каталог

FREGAT DEB

LostUNKNOWN
NORAD 45925·DEBRIS·🇷🇺 Russia

Запущен Jul 18, 2011 с Baikonur Cosmodrome

Loading…

Ближайшие Пролёты (ближайшие 24 часа)

TLE

УстаревшееSource: Space-Track

Эпоха: Sep 1, 2020, 22:30 UTC

1 45925U 11037EP  20245.93805878 -.00049861  00000-0 -22530+0 0  9999
2 45925  51.2249 131.9565 0893420 242.3734 108.3648 11.90468465  6494

Отслеживайте FREGAT DEB в реальном времени с AllMySat

Download on the App Store